Other Surface Observations
Issued by NWS

Home | Current Version | Previous Version | Text Only | Print | Product List | Glossary On
Versions: 1 2 3 4 5 6 7 8 9 10 11 12 13 14 15 16 17 18 19 20 21 22 23 24 25 26 27 28 29 30 31 32 33 34 35 36 37 38 39 40 41 42 43 44 45 46 47 48 49 50
000
SXUS52 KTAE 062018
OSOTAE
OSOTAE
North Florida/South Alabama/Southwest Georgia Weather Roundup
National Weather Service Tallahassee Florida
300 PM EST FRI MAR 06 2015

Note: "fair" indicates few or no clouds below 12,000 feet with no
significant weather and/or obstructions to visibility.

!FLZ017-115-028-034-025-062100
...North Florida...

CITY           SKY/WX    TMP DP  RH WIND       PRES   REMARKS
TALLAHASSEE    CLOUDY    50  40  68 N13       30.34S
APALACHICOLA   MOSUNNY   62  41  46 N9        30.31R
PERRY          NOT AVBL
CROSS CITY       N/A     58  49  72 NE10      30.27S
JACKSONVILLE   DRIZZLE   47  46  97 N15G24    30.32R FOG     WCI  41
$$

!FLZ112-006-005-002-011-062100
...Florida Panhandle...

CITY           SKY/WX    TMP DP  RH WIND       PRES   REMARKS
MARIANNA       CLOUDY    46  38  73 N10       30.37F WCI  41
BONIFAY        MOCLDY    49  36  61 NE9G17    30.38F WCI  45
PANAMA CITY NW FAIR      52  37  56 N14       30.34F
TYNDALL AFB    PTSUNNY   54  40  57 N10       30.33F
TYND DRONE APT FAIR      55  41  57 N17G24    30.32F
DE FUNIAK SPR  FAIR      49  33  53 N13G20    30.37S WCI  44
EGLIN AFB      PTSUNNY   54  29  38 N16       30.34F
DESTIN         MOSUNNY   54  32  43 N10       30.35F
HURLBURT       NOT AVBL
CRESTVIEW      MOSUNNY   53  31  42 VRB7G20   30.39F
PENSACOLA      PTSUNNY   51  21  30 N14       30.37F
$$

!ALZ063-066-062100
...South Alabama...

CITY           SKY/WX    TMP DP  RH WIND       PRES   REMARKS
DOTHAN         CLOUDY    47  37  68 NE12      30.41F WCI  42
OZARK CAIRNS   MOSUNNY   50  34  54 N3        30.37F
FT RUCKER HELI MOSUNNY   51  35  54 N10       30.37F
RUCKER HELI 3  FAIR      49  35  57 N9G16     30.38F
RUCKER HELI 2  FAIR      50  35  56 NE14      30.37F WCI  45
FLORALA APT    MOSUNNY   50  31  48 N12G20    30.39F
ANDALUSIA      SUNNY     54  31  41 NE10G16   30.39F
TROY           SUNNY     50  32  50 N9        30.39F
EUFALA         PTSUNNY   52  37  58 NE3       30.38F
MOBILE         PTSUNNY   52  11  19 N16G23    30.40F
$$

!GAZ120>161-062100
...Southwest and South Central Georgia...

CITY           SKY/WX    TMP DP  RH WIND       PRES   REMARKS
THOMASVILLE    CLOUDY    46  46 100 N9        30.36S WCI  42
BAINBRIDGE     CLOUDY    46  41  81 N10       30.38F WCI  41
MOODY AFB      CLOUDY    48  43  81 NE10      30.33R WCI  44
VALDOSTA       LGT RAIN  49  47  93 N12       30.33F FOG     WCI  44
MOULTRIE       CLOUDY    46  45  93 N8        30.36S FOG     WCI  42
BLAKELY        CLOUDY    46  41  81 NE9       30.40S WCI  42
ALBANY         CLOUDY    46  39  76 N9        30.40F WCI  41
TIFTON         CLOUDY    45  39  79 NE3       30.36S
FITZGERALD     CLOUDY    47  38  71 N8        30.39F WCI  43
CORDELE        CLOUDY    48  37  66 N10       30.39F WCI  43
AMERICUS       CLOUDY    45  37  76 N9        30.41S WCI  40
HOMERVILLE     CLOUDY    48  45  87 NE7       30.35S FOG
$$

!GMZ750-755-770-775-062100
...Coastal and Buoy Obs...

STATION/POSITION TIME  TEMP    WIND        PRES    VSBY  WAVE
                       AIR SEA DIR/SP/G                  HT/PER
                 (UTC) (F)     (DEG/KT/KT) (MB)    (MI)  (FT/S)
KEATON BEACH     2000   53      20/  5/  9 1025.6F
CEDAR KEY        1959   57      50/ 10/ 12 1024.5F
C TOWER          2000   53     360/  7/  8 1025.9F
APALACHICOLA BUO 2000   57 67   20/ 14/ 17 1024.5F         5/ 6
PANAMA CITY BUOY 1941   52 67  360/ 16/ 19 1026.6F         4/ 6
MOBILE BUOY      1941   47 66   10/ 23/ 27 1028.6F         5/ 6
ORANGE BCH AL BU 2000   49 61   20/ 14/ 17 1027.7F         2/ 4
$$



USA.gov is the U.S. government's official web portal to all federal, state and local government web resources and services.